Time,TemperatureF,DewpointF,PressureIn,WindDirection,WindDirectionDegrees,WindSpeedMPH,WindSpeedGustMPH,Humidity,HourlyPrecipIn,Conditions,Clouds,dailyrainin,SoftwareType,DateUTC
2013-12-15 00:01:00,17.5,15.3,29.89,NE,38,1.0,1.0,91,0.00,,,0.00,Wunderground v.1.15,2013-12-15 05:01:00,
2013-12-15 00:03:00,17.4,15.2,29.89,NE,38,1.0,1.0,91,0.00,,,0.00,Wunderground v.1.15,2013-12-15 05:03:00,
2013-12-15 00:04:00,17.4,15.2,29.89,NE,38,0.0,1.0,91,0.00,,,0.00,Wunderground v.1.15,2013-12-15 05:04:00,
2013-12-15 00:06:00,17.3,15.1,29.89,NE,38,0.0,1.0,91,0.00,,,0.00,Wunderground v.1.15,2013-12-15 05:06:00,
2013-12-15 00:08:00,17.2,15.0,29.89,NE,38,0.0,1.0,91,0.00,,,0.00,Wunderground v.1.15,2013-12-15 05:08:00,
2013-12-15 00:13:00,17.0,14.8,29.89,NE,38,0.0,1.0,91,0.00,,,0.00,Wunderground v.1.15,2013-12-15 05:13:00,
2013-12-15 00:17:00,16.8,14.6,29.89,NE,38,0.0,1.0,91,0.00,,,0.00,Wunderground v.1.15,2013-12-15 05:17:00,
2013-12-15 00:22:00,16.7,14.5,29.89,NE,38,0.0,2.0,91,0.00,,,0.00,Wunderground v.1.15,2013-12-15 05:22:00,
2013-12-15 00:28:00,16.5,14.3,29.89,NE,38,0.0,2.0,91,0.00,,,0.00,Wunderground v.1.15,2013-12-15 05:28:00,
2013-12-15 00:33:00,16.4,14.2,29.89,NE,37,0.0,0.0,91,0.00,,,0.00,Wunderground v.1.15,2013-12-15 05:33:00,
2013-12-15 00:39:00,16.2,14.0,29.88,NE,37,0.0,0.0,91,0.00,,,0.00,Wunderground v.1.15,2013-12-15 05:39:00,
2013-12-15 00:44:00,16.0,13.8,29.88,NE,38,0.0,0.0,91,0.00,,,0.00,Wunderground v.1.15,2013-12-15 05:44:00,
2013-12-15 00:50:00,15.9,13.7,29.88,NE,38,0.0,0.0,91,0.00,,,0.00,Wunderground v.1.15,2013-12-15 05:50:00,
2013-12-15 00:55:00,15.8,13.6,29.88,NE,37,0.0,0.0,91,0.00,,,0.00,Wunderground v.1.15,2013-12-15 05:55:00,
2013-12-15 01:00:00,15.8,13.9,29.88,NE,38,0.0,0.0,92,0.00,,,0.00,Wunderground v.1.15,2013-12-15 06:00:00,
2013-12-15 01:06:00,15.9,14.0,29.88,NE,38,0.0,3.0,92,0.00,,,0.00,Wunderground v.1.15,2013-12-15 06:06:00,
2013-12-15 01:11:00,16.1,14.2,29.88,NE,34,1.0,4.0,92,0.00,,,0.00,Wunderground v.1.15,2013-12-15 06:11:00,
2013-12-15 01:16:00,16.2,14.3,29.88,NNE,32,1.0,4.0,92,0.00,,,0.00,Wunderground v.1.15,2013-12-15 06:16:00,
2013-12-15 01:22:00,16.2,14.3,29.88,NNE,25,1.0,2.0,92,0.00,,,0.00,Wunderground v.1.15,2013-12-15 06:22:00,
2013-12-15 01:28:00,16.3,14.4,29.88,NNE,24,1.0,2.0,92,0.00,,,0.00,Wunderground v.1.15,2013-12-15 06:28:00,
2013-12-15 01:33:00,16.3,14.4,29.88,NNE,22,1.0,3.0,92,0.00,,,0.00,Wunderground v.1.15,2013-12-15 06:33:00,
2013-12-15 01:39:00,16.3,14.4,29.88,NNE,22,1.0,2.0,92,0.00,,,0.00,Wunderground v.1.15,2013-12-15 06:39:00,
2013-12-15 01:44:00,16.3,14.4,29.89,NNE,23,1.0,2.0,92,0.00,,,0.00,Wunderground v.1.15,2013-12-15 06:44:00,
2013-12-15 01:50:00,16.4,14.5,29.89,NNE,22,1.0,1.0,92,0.00,,,0.00,Wunderground v.1.15,2013-12-15 06:50:00,
2013-12-15 01:56:00,16.6,14.7,29.89,NNE,21,1.0,3.0,92,0.00,,,0.00,Wunderground v.1.15,2013-12-15 06:56:00,
2013-12-15 02:01:00,16.7,14.8,29.89,NNE,21,1.0,3.0,92,0.00,,,0.00,Wunderground v.1.15,2013-12-15 07:01:00,
2013-12-15 02:06:00,16.8,14.9,29.89,NNE,18,1.0,3.0,92,0.00,,,0.00,Wunderground v.1.15,2013-12-15 07:06:00,
2013-12-15 02:12:00,16.9,15.0,29.89,NNE,14,1.0,3.0,92,0.00,,,0.00,Wunderground v.1.15,2013-12-15 07:12:00,
2013-12-15 02:18:00,17.0,15.1,29.89,NNE,13,1.0,3.0,92,0.00,,,0.00,Wunderground v.1.15,2013-12-15 07:18:00,
2013-12-15 02:23:00,17.0,15.1,29.89,NNE,13,1.0,3.0,92,0.00,,,0.00,Wunderground v.1.15,2013-12-15 07:23:00,
2013-12-15 02:29:00,17.1,15.2,29.89,NNE,13,1.0,3.0,92,0.00,,,0.00,Wunderground v.1.15,2013-12-15 07:29:00,
2013-12-15 02:34:00,17.2,15.3,29.89,North,11,1.0,3.0,92,0.00,,,0.00,Wunderground v.1.15,2013-12-15 07:34:00,
2013-12-15 02:40:00,17.4,15.5,29.89,North,11,1.0,2.0,92,0.00,,,0.00,Wunderground v.1.15,2013-12-15 07:40:00,
2013-12-15 02:45:00,17.5,15.6,29.89,North,11,1.0,2.0,92,0.00,,,0.00,Wunderground v.1.15,2013-12-15 07:45:00,
2013-12-15 02:50:00,17.6,15.7,29.90,North,11,0.0,3.0,92,0.00,,,0.00,Wunderground v.1.15,2013-12-15 07:50:00,
2013-12-15 02:55:00,17.7,15.8,29.90,North,10,1.0,3.0,92,0.00,,,0.00,Wunderground v.1.15,2013-12-15 07:55:00,
2013-12-15 03:01:00,17.8,15.9,29.90,North,10,2.0,5.0,92,0.00,,,0.00,Wunderground v.1.15,2013-12-15 08:01:00,
2013-12-15 03:06:00,17.9,16.0,29.90,North,10,1.0,5.0,92,0.00,,,0.00,Wunderground v.1.15,2013-12-15 08:06:00,
2013-12-15 03:11:00,17.9,16.0,29.90,North,9,0.0,2.0,92,0.00,,,0.00,Wunderground v.1.15,2013-12-15 08:11:00,
2013-12-15 03:17:00,18.0,16.1,29.90,North,349,1.0,3.0,92,0.00,,,0.00,Wunderground v.1.15,2013-12-15 08:17:00,
2013-12-15 03:22:00,18.1,16.2,29.90,NNW,348,2.0,3.0,92,0.00,,,0.00,Wunderground v.1.15,2013-12-15 08:22:00,
2013-12-15 03:28:00,18.1,16.2,29.90,NNW,333,1.0,4.0,92,0.00,,,0.00,Wunderground v.1.15,2013-12-15 08:28:00,
2013-12-15 03:34:00,18.2,16.3,29.90,NNW,332,1.0,4.0,92,0.00,,,0.00,Wunderground v.1.15,2013-12-15 08:34:00,
2013-12-15 03:40:00,18.2,16.3,29.90,NNW,331,2.0,2.0,92,0.00,,,0.00,Wunderground v.1.15,2013-12-15 08:40:00,
2013-12-15 03:45:00,18.2,16.3,29.90,NNW,331,1.0,3.0,92,0.00,,,0.00,Wunderground v.1.15,2013-12-15 08:45:00,
2013-12-15 03:51:00,18.2,16.3,29.90,NW,326,2.0,4.0,92,0.00,,,0.00,Wunderground v.1.15,2013-12-15 08:51:00,
2013-12-15 03:56:00,18.2,16.3,29.90,NNW,327,2.0,4.0,92,0.00,,,0.00,Wunderground v.1.15,2013-12-15 08:56:00,
2013-12-15 04:01:00,18.2,16.3,29.90,NW,326,1.0,3.0,92,0.00,,,0.00,Wunderground v.1.15,2013-12-15 09:01:00,
2013-12-15 04:07:00,18.2,16.3,29.90,NW,326,1.0,3.0,92,0.00,,,0.00,Wunderground v.1.15,2013-12-15 09:07:00,
2013-12-15 04:12:00,18.2,16.3,29.90,NW,325,1.0,4.0,92,0.00,,,0.00,Wunderground v.1.15,2013-12-15 09:12:00,
2013-12-15 04:18:00,18.2,16.3,29.90,NW,324,2.0,4.0,92,0.00,,,0.00,Wunderground v.1.15,2013-12-15 09:18:00,
2013-12-15 04:23:00,18.2,16.3,29.90,NW,323,2.0,4.0,92,0.00,,,0.00,Wunderground v.1.15,2013-12-15 09:23:00,
2013-12-15 04:29:00,18.2,16.3,29.90,NW,319,3.0,3.0,92,0.00,,,0.00,Wunderground v.1.15,2013-12-15 09:29:00,
2013-12-15 04:34:00,18.2,16.3,29.90,NW,319,2.0,4.0,92,0.00,,,0.00,Wunderground v.1.15,2013-12-15 09:34:00,
2013-12-15 04:40:00,18.2,16.3,29.90,NW,319,2.0,2.0,92,0.00,,,0.00,Wunderground v.1.15,2013-12-15 09:40:00,
2013-12-15 04:45:00,18.2,16.3,29.90,NW,318,2.0,3.0,92,0.00,,,0.00,Wunderground v.1.15,2013-12-15 09:45:00,
2013-12-15 04:51:00,18.2,16.3,29.90,NW,317,2.0,4.0,92,0.00,,,0.00,Wunderground v.1.15,2013-12-15 09:51:00,
2013-12-15 04:56:00,18.2,16.3,29.90,NW,313,2.0,4.0,92,0.00,,,0.00,Wunderground v.1.15,2013-12-15 09:56:00,
2013-12-15 05:01:00,18.2,16.3,29.90,NW,312,2.0,3.0,92,0.00,,,0.00,Wunderground v.1.15,2013-12-15 10:01:00,
2013-12-15 05:06:00,18.3,16.4,29.90,NW,312,2.0,3.0,92,0.00,,,0.00,Wunderground v.1.15,2013-12-15 10:06:00,
2013-12-15 05:12:00,18.3,16.4,29.90,NW,310,2.0,5.0,92,0.00,,,0.00,Wunderground v.1.15,2013-12-15 10:12:00,
2013-12-15 05:18:00,18.3,16.4,29.90,NW,310,1.0,5.0,92,0.00,,,0.00,Wunderground v.1.15,2013-12-15 10:18:00,
2013-12-15 05:23:00,18.3,16.4,29.90,NW,309,1.0,3.0,92,0.00,,,0.00,Wunderground v.1.15,2013-12-15 10:23:00,
2013-12-15 05:29:00,18.4,16.5,29.90,NW,308,2.0,2.0,92,0.00,,,0.00,Wunderground v.1.15,2013-12-15 10:29:00,
2013-12-15 05:35:00,18.4,16.5,29.90,NW,308,2.0,3.0,92,0.00,,,0.00,Wunderground v.1.15,2013-12-15 10:35:00,
2013-12-15 05:41:00,18.4,16.5,29.90,NW,307,2.0,2.0,92,0.00,,,0.00,Wunderground v.1.15,2013-12-15 10:41:00,
2013-12-15 05:46:00,18.4,16.5,29.90,NW,307,1.0,2.0,92,0.00,,,0.00,Wunderground v.1.15,2013-12-15 10:46:00,
2013-12-15 05:52:00,18.4,16.5,29.90,NW,307,1.0,2.0,92,0.00,,,0.00,Wunderground v.1.15,2013-12-15 10:52:00,
2013-12-15 05:58:00,18.4,16.5,29.89,NW,307,0.0,2.0,92,0.00,,,0.00,Wunderground v.1.15,2013-12-15 10:58:00,
2013-12-15 06:03:00,18.4,16.5,29.89,NW,307,0.0,0.0,92,0.00,,,0.00,Wunderground v.1.15,2013-12-15 11:03:00,
2013-12-15 06:08:00,18.3,16.4,29.89,NW,307,0.0,0.0,92,0.00,,,0.00,Wunderground v.1.15,2013-12-15 11:08:00,
2013-12-15 06:13:00,18.4,16.5,29.89,NW,307,0.0,0.0,92,0.00,,,0.00,Wunderground v.1.15,2013-12-15 11:13:00,
2013-12-15 06:19:00,18.3,16.4,29.89,NW,307,0.0,0.0,92,0.00,,,0.00,Wunderground v.1.15,2013-12-15 11:19:00,
2013-12-15 06:24:00,18.3,16.4,29.89,NW,307,0.0,0.0,92,0.00,,,0.00,Wunderground v.1.15,2013-12-15 11:24:00,
2013-12-15 06:30:00,18.3,16.4,29.88,NW,307,0.0,0.0,92,0.00,,,0.00,Wunderground v.1.15,2013-12-15 11:30:00,
2013-12-15 06:35:00,18.3,16.4,29.88,NW,307,0.0,2.0,92,0.00,,,0.00,Wunderground v.1.15,2013-12-15 11:35:00,
2013-12-15 06:41:00,18.3,16.4,29.88,NW,307,0.0,0.0,92,0.00,,,0.00,Wunderground v.1.15,2013-12-15 11:41:00,
2013-12-15 06:46:00,18.3,16.4,29.89,NW,307,0.0,0.0,92,0.00,,,0.00,Wunderground v.1.15,2013-12-15 11:46:00,
2013-12-15 06:52:00,18.3,16.4,29.89,NW,307,0.0,0.0,92,0.00,,,0.00,Wunderground v.1.15,2013-12-15 11:52:00,
2013-12-15 06:58:00,18.3,16.4,29.88,NW,308,0.0,0.0,92,0.00,,,0.00,Wunderground v.1.15,2013-12-15 11:58:00,
2013-12-15 07:03:00,18.2,16.3,29.88,NW,307,0.0,0.0,92,0.00,,,0.00,Wunderground v.1.15,2013-12-15 12:03:00,
2013-12-15 07:09:00,18.3,16.4,29.88,NW,307,0.0,0.0,92,0.00,,,0.00,Wunderground v.1.15,2013-12-15 12:09:00,
2013-12-15 07:14:00,18.2,16.3,29.88,NW,307,0.0,0.0,92,0.00,,,0.00,Wunderground v.1.15,2013-12-15 12:14:00,
2013-12-15 07:20:00,18.2,16.3,29.88,NW,307,0.0,0.0,92,0.00,,,0.00,Wunderground v.1.15,2013-12-15 12:20:00,
2013-12-15 07:25:00,18.3,16.4,29.88,NW,307,0.0,2.0,92,0.00,,,0.00,Wunderground v.1.15,2013-12-15 12:25:00,
2013-12-15 07:30:00,18.3,16.4,29.88,NW,307,0.0,0.0,92,0.00,,,0.00,Wunderground v.1.15,2013-12-15 12:30:00,
2013-12-15 07:35:00,18.3,16.4,29.88,NW,307,0.0,0.0,92,0.00,,,0.00,Wunderground v.1.15,2013-12-15 12:35:00,
2013-12-15 07:41:00,18.4,16.5,29.88,NW,307,0.0,2.0,92,0.00,,,0.00,Wunderground v.1.15,2013-12-15 12:41:00,
2013-12-15 07:46:00,18.4,16.5,29.88,NW,307,0.0,2.0,92,0.00,,,0.00,Wunderground v.1.15,2013-12-15 12:46:00,
2013-12-15 07:52:00,18.5,16.6,29.88,NW,306,1.0,1.0,92,0.00,,,0.00,Wunderground v.1.15,2013-12-15 12:52:00,
2013-12-15 07:58:00,18.5,16.6,29.87,NW,306,0.0,1.0,92,0.00,,,0.00,Wunderground v.1.15,2013-12-15 12:58:00,
2013-12-15 08:03:00,18.5,16.6,29.87,NW,306,0.0,1.0,92,0.00,,,0.00,Wunderground v.1.15,2013-12-15 13:03:00,
2013-12-15 08:09:00,18.6,16.7,29.87,WNW,302,1.0,1.0,92,0.00,,,0.00,Wunderground v.1.15,2013-12-15 13:09:00,
2013-12-15 08:14:00,18.6,16.7,29.87,WNW,302,1.0,1.0,92,0.00,,,0.00,Wunderground v.1.15,2013-12-15 13:14:00,
2013-12-15 08:20:00,18.6,16.7,29.87,WNW,301,1.0,1.0,92,0.00,,,0.00,Wunderground v.1.15,2013-12-15 13:20:00,
2013-12-15 08:25:00,18.7,16.8,29.87,SW,225,1.0,4.0,92,0.00,,,0.00,Wunderground v.1.15,2013-12-15 13:25:00,
2013-12-15 08:30:00,18.8,16.9,29.87,SW,225,1.0,1.0,92,0.00,,,0.00,Wunderground v.1.15,2013-12-15 13:30:00,
2013-12-15 08:36:00,18.9,17.0,29.87,WSW,253,0.0,4.0,92,0.00,,,0.00,Wunderground v.1.15,2013-12-15 13:36:00,
2013-12-15 08:42:00,18.9,17.0,29.87,WSW,252,1.0,1.0,92,0.00,,,0.00,Wunderground v.1.15,2013-12-15 13:42:00,
2013-12-15 08:48:00,19.0,17.1,29.87,WSW,252,1.0,3.0,92,0.00,,,0.00,Wunderground v.1.15,2013-12-15 13:48:00,
2013-12-15 08:53:00,19.1,17.2,29.87,WSW,252,1.0,1.0,92,0.00,,,0.00,Wunderground v.1.15,2013-12-15 13:53:00,
2013-12-15 08:59:00,19.2,17.3,29.87,WSW,252,1.0,1.0,92,0.00,,,0.00,Wunderground v.1.15,2013-12-15 13:59:00,
2013-12-15 09:05:00,19.3,17.4,29.88,WSW,252,1.0,3.0,92,0.00,,,0.00,Wunderground v.1.15,2013-12-15 14:05:00,
2013-12-15 09:11:00,19.5,17.6,29.88,WSW,250,1.0,1.0,92,0.00,,,0.00,Wunderground v.1.15,2013-12-15 14:11:00,
2013-12-15 09:16:00,19.7,17.8,29.88,WSW,250,1.0,3.0,92,0.00,,,0.00,Wunderground v.1.15,2013-12-15 14:16:00,
2013-12-15 09:22:00,19.7,17.8,29.87,WSW,250,1.0,2.0,92,0.00,,,0.00,Wunderground v.1.15,2013-12-15 14:22:00,
2013-12-15 09:28:00,19.8,17.9,29.88,West,271,1.0,5.0,92,0.00,,,0.00,Wunderground v.1.15,2013-12-15 14:28:00,
2013-12-15 09:33:00,20.0,18.1,29.88,West,269,3.0,4.0,92,0.00,,,0.00,Wunderground v.1.15,2013-12-15 14:33:00,
2013-12-15 09:39:00,20.2,18.2,29.87,West,269,3.0,4.0,92,0.00,,,0.00,Wunderground v.1.15,2013-12-15 14:39:00,
2013-12-15 09:44:00,20.4,18.4,29.87,West,269,2.0,4.0,92,0.00,,,0.00,Wunderground v.1.15,2013-12-15 14:44:00,
2013-12-15 09:50:00,20.6,18.6,29.87,West,272,2.0,2.0,92,0.00,,,0.00,Wunderground v.1.15,2013-12-15 14:50:00,
2013-12-15 09:55:00,20.8,18.8,29.87,West,276,2.0,3.0,92,0.00,,,0.00,Wunderground v.1.15,2013-12-15 14:55:00,
2013-12-15 10:01:00,21.0,19.0,29.87,West,277,2.0,3.0,92,0.00,,,0.00,Wunderground v.1.15,2013-12-15 15:01:00,
2013-12-15 10:07:00,21.3,19.3,29.87,WNW,286,3.0,9.0,92,0.00,,,0.00,Wunderground v.1.15,2013-12-15 15:07:00,
2013-12-15 10:12:00,21.5,19.5,29.87,WNW,284,4.0,5.0,92,0.00,,,0.00,Wunderground v.1.15,2013-12-15 15:12:00,
2013-12-15 10:18:00,21.7,19.7,29.87,WNW,283,3.0,5.0,92,0.00,,,0.00,Wunderground v.1.15,2013-12-15 15:18:00,
2013-12-15 10:23:00,21.8,19.8,29.87,West,281,4.0,5.0,92,0.00,,,0.00,Wunderground v.1.15,2013-12-15 15:23:00,
2013-12-15 10:29:00,22.0,20.0,29.87,West,279,4.0,4.0,92,0.00,,,0.00,Wunderground v.1.15,2013-12-15 15:29:00,
2013-12-15 10:34:00,22.1,20.1,29.87,WNW,289,4.0,4.0,92,0.00,,,0.00,Wunderground v.1.15,2013-12-15 15:34:00,
2013-12-15 10:40:00,22.2,20.2,29.87,WNW,289,3.0,4.0,92,0.00,,,0.00,Wunderground v.1.15,2013-12-15 15:40:00,
2013-12-15 10:45:00,22.4,20.4,29.87,WNW,283,3.0,6.0,92,0.00,,,0.00,Wunderground v.1.15,2013-12-15 15:45:00,
2013-12-15 10:50:00,22.5,20.5,29.87,WNW,283,4.0,6.0,92,0.00,,,0.00,Wunderground v.1.15,2013-12-15 15:50:00,
2013-12-15 10:56:00,22.5,20.5,29.87,NW,323,4.0,7.0,92,0.00,,,0.00,Wunderground v.1.15,2013-12-15 15:56:00,
2013-12-15 11:02:00,22.6,20.6,29.87,WNW,283,4.0,6.0,92,0.00,,,0.00,Wunderground v.1.15,2013-12-15 16:02:00,
2013-12-15 11:08:00,22.7,20.7,29.87,WNW,283,4.0,6.0,92,0.00,,,0.00,Wunderground v.1.15,2013-12-15 16:08:00,
2013-12-15 11:14:00,22.9,20.9,29.86,WNW,296,4.0,5.0,92,0.00,,,0.00,Wunderground v.1.15,2013-12-15 16:14:00,
2013-12-15 11:20:00,22.9,20.9,29.86,NW,319,5.0,5.0,92,0.00,,,0.00,Wunderground v.1.15,2013-12-15 16:20:00,
2013-12-15 11:25:00,22.7,20.5,29.86,West,264,6.0,9.0,91,0.00,,,0.00,Wunderground v.1.15,2013-12-15 16:25:00,
2013-12-15 11:31:00,22.4,20.2,29.86,West,272,7.0,8.0,91,0.00,,,0.00,Wunderground v.1.15,2013-12-15 16:31:00,
2013-12-15 11:38:00,22.6,20.1,29.86,West,275,7.0,10.0,90,0.00,,,0.00,Wunderground v.1.15,2013-12-15 16:38:00,
2013-12-15 11:43:00,22.5,19.7,29.86,WNW,287,7.0,15.0,89,0.00,,,0.00,Wunderground v.1.15,2013-12-15 16:43:00,
2013-12-15 11:49:00,22.4,19.6,29.87,NW,316,6.0,10.0,89,0.00,,,0.00,Wunderground v.1.15,2013-12-15 16:49:00,
2013-12-15 11:54:00,21.7,18.7,29.87,NW,322,7.0,17.0,88,0.00,,,0.00,Wunderground v.1.15,2013-12-15 16:54:00,
2013-12-15 12:00:00,21.0,18.0,29.87,NNW,335,8.0,8.0,88,0.00,,,0.00,Wunderground v.1.15,2013-12-15 17:00:00,
2013-12-15 12:05:00,20.7,17.7,29.87,NNW,334,7.0,11.0,88,0.00,,,0.00,Wunderground v.1.15,2013-12-15 17:05:00,
2013-12-15 12:11:00,20.4,17.4,29.86,WNW,302,7.0,10.0,88,0.00,,,0.00,Wunderground v.1.15,2013-12-15 17:11:00,
2013-12-15 12:16:00,20.1,17.1,29.87,WNW,299,8.0,17.0,88,0.00,,,0.00,Wunderground v.1.15,2013-12-15 17:16:00,
2013-12-15 12:22:00,19.8,16.6,29.87,NW,309,8.0,10.0,87,0.00,,,0.00,Wunderground v.1.15,2013-12-15 17:22:00,
2013-12-15 12:28:00,19.7,16.5,29.87,NNW,334,8.0,15.0,87,0.00,,,0.00,Wunderground v.1.15,2013-12-15 17:28:00,
2013-12-15 12:33:00,19.7,16.2,29.86,NNW,332,7.0,13.0,86,0.00,,,0.00,Wunderground v.1.15,2013-12-15 17:33:00,
2013-12-15 12:39:00,19.7,16.2,29.86,NW,313,5.0,5.0,86,0.00,,,0.00,Wunderground v.1.15,2013-12-15 17:39:00,
2013-12-15 12:44:00,19.8,16.0,29.86,NW,324,6.0,14.0,85,0.00,,,0.00,Wunderground v.1.15,2013-12-15 17:44:00,
2013-12-15 12:49:00,19.9,16.1,29.86,NNW,342,6.0,9.0,85,0.00,,,0.00,Wunderground v.1.15,2013-12-15 17:49:00,
2013-12-15 12:54:00,20.0,15.9,29.86,WNW,283,6.0,14.0,84,0.00,,,0.00,Wunderground v.1.15,2013-12-15 17:54:00,
2013-12-15 13:00:00,19.9,15.8,29.86,WNW,294,6.0,7.0,84,0.00,,,0.00,Wunderground v.1.15,2013-12-15 18:00:00,
2013-12-15 13:05:00,19.7,15.9,29.86,NW,312,6.0,9.0,85,0.00,,,0.00,Wunderground v.1.15,2013-12-15 18:05:00,
2013-12-15 13:11:00,19.7,15.9,29.86,NW,321,8.0,10.0,85,0.00,,,0.00,Wunderground v.1.15,2013-12-15 18:11:00,
2013-12-15 13:16:00,19.7,15.9,29.86,West,277,9.0,15.0,85,0.00,,,0.00,Wunderground v.1.15,2013-12-15 18:16:00,
2013-12-15 13:22:00,19.5,15.7,29.86,NNW,342,7.0,8.0,85,0.00,,,0.00,Wunderground v.1.15,2013-12-15 18:22:00,
2013-12-15 13:28:00,19.5,15.7,29.86,North,350,7.0,11.0,85,0.00,,,0.00,Wunderground v.1.15,2013-12-15 18:28:00,
2013-12-15 13:33:00,19.7,16.2,29.86,WNW,300,6.0,9.0,86,0.00,,,0.00,Wunderground v.1.15,2013-12-15 18:33:00,
2013-12-15 13:39:00,19.7,15.9,29.86,WNW,292,5.0,5.0,85,0.00,,,0.00,Wunderground v.1.15,2013-12-15 18:39:00,
2013-12-15 13:44:00,19.8,16.0,29.86,NNW,341,6.0,12.0,85,0.00,,,0.00,Wunderground v.1.15,2013-12-15 18:44:00,
2013-12-15 13:49:00,19.9,15.8,29.86,NNW,340,6.0,6.0,84,0.00,,,0.00,Wunderground v.1.15,2013-12-15 18:49:00,
2013-12-15 13:54:00,19.9,15.8,29.87,WNW,294,6.0,7.0,84,0.00,,,0.00,Wunderground v.1.15,2013-12-15 18:54:00,
2013-12-15 14:00:00,19.9,15.8,29.86,WNW,298,7.0,9.0,84,0.00,,,0.00,Wunderground v.1.15,2013-12-15 19:00:00,
2013-12-15 14:05:00,19.9,15.6,29.87,WNW,292,7.0,15.0,83,0.00,,,0.00,Wunderground v.1.15,2013-12-15 19:05:00,
2013-12-15 14:11:00,19.9,15.8,29.87,WNW,284,7.0,7.0,84,0.00,,,0.00,Wunderground v.1.15,2013-12-15 19:11:00,
2013-12-15 14:17:00,19.7,15.9,29.87,NW,304,7.0,12.0,85,0.00,,,0.00,Wunderground v.1.15,2013-12-15 19:17:00,
2013-12-15 14:22:00,19.3,15.8,29.87,WNW,303,7.0,12.0,86,0.00,,,0.00,Wunderground v.1.15,2013-12-15 19:22:00,
2013-12-15 14:27:00,19.1,15.6,29.87,NW,314,6.0,12.0,86,0.00,,,0.00,Wunderground v.1.15,2013-12-15 19:27:00,
2013-12-15 14:33:00,19.0,15.5,29.87,WNW,285,6.0,9.0,86,0.00,,,0.00,Wunderground v.1.15,2013-12-15 19:33:00,
2013-12-15 14:39:00,19.1,15.3,29.88,NW,313,6.0,11.0,85,0.00,,,0.00,Wunderground v.1.15,2013-12-15 19:39:00,
2013-12-15 14:44:00,19.1,14.8,29.88,NW,326,6.0,10.0,83,0.00,,,0.00,Wunderground v.1.15,2013-12-15 19:44:00,
2013-12-15 14:50:00,19.2,14.9,29.88,WNW,303,7.0,7.0,83,0.00,,,0.00,Wunderground v.1.15,2013-12-15 19:50:00,
2013-12-15 14:55:00,19.3,15.0,29.88,NW,306,6.0,10.0,83,0.00,,,0.00,Wunderground v.1.15,2013-12-15 19:55:00,
2013-12-15 15:01:00,19.7,15.1,29.89,WNW,298,6.0,9.0,82,0.00,,,0.00,Wunderground v.1.15,2013-12-15 20:01:00,
2013-12-15 15:05:00,19.7,14.8,29.89,NNW,340,7.0,9.0,81,0.00,,,0.00,Wunderground v.1.15,2013-12-15 20:05:00,
2013-12-15 15:10:00,19.7,15.1,29.89,NW,304,7.0,7.0,82,0.00,,,0.00,Wunderground v.1.15,2013-12-15 20:10:00,
2013-12-15 15:15:00,19.7,14.8,29.90,NNW,336,6.0,7.0,81,0.00,,,0.00,Wunderground v.1.15,2013-12-15 20:15:00,
2013-12-15 15:21:00,19.4,14.5,29.90,NW,306,6.0,7.0,81,0.00,,,0.00,Wunderground v.1.15,2013-12-15 20:21:00,
2013-12-15 15:26:00,19.0,13.8,29.90,WNW,298,7.0,13.0,80,0.00,,,0.00,Wunderground v.1.15,2013-12-15 20:26:00,
2013-12-15 15:32:00,18.8,13.9,29.90,WNW,302,7.0,10.0,81,0.00,,,0.00,Wunderground v.1.15,2013-12-15 20:32:00,
2013-12-15 15:39:00,18.6,13.5,29.90,WNW,298,6.0,11.0,80,0.00,,,0.00,Wunderground v.1.15,2013-12-15 20:39:00,
2013-12-15 15:44:00,18.4,13.5,29.91,NNW,346,7.0,10.0,81,0.00,,,0.00,Wunderground v.1.15,2013-12-15 20:44:00,
2013-12-15 15:50:00,18.2,13.3,29.91,WNW,287,6.0,6.0,81,0.00,,,0.00,Wunderground v.1.15,2013-12-15 20:50:00,
2013-12-15 15:55:00,18.0,13.4,29.92,NW,323,6.0,12.0,82,0.00,,,0.00,Wunderground v.1.15,2013-12-15 20:55:00,
2013-12-15 16:00:00,18.0,13.7,29.92,NW,313,6.0,6.0,83,0.00,,,0.00,Wunderground v.1.15,2013-12-15 21:00:00,
2013-12-15 16:05:00,17.9,13.6,29.92,WNW,284,5.0,6.0,83,0.00,,,0.00,Wunderground v.1.15,2013-12-15 21:05:00,
2013-12-15 16:11:00,17.7,13.1,29.92,WNW,303,6.0,14.0,82,0.00,,,0.00,Wunderground v.1.15,2013-12-15 21:11:00,
2013-12-15 16:17:00,17.7,12.6,29.92,NW,307,9.0,16.0,80,0.00,,,0.00,Wunderground v.1.15,2013-12-15 21:17:00,
2013-12-15 16:23:00,17.7,12.6,29.93,NNW,331,8.0,10.0,80,0.00,,,0.00,Wunderground v.1.15,2013-12-15 21:23:00,
2013-12-15 16:29:00,17.5,11.5,29.93,NNW,342,8.0,15.0,77,0.00,,,0.00,Wunderground v.1.15,2013-12-15 21:29:00,
2013-12-15 16:34:00,17.4,11.1,29.94,North,360,9.0,9.0,76,0.00,,,0.00,Wunderground v.1.15,2013-12-15 21:34:00,
2013-12-15 16:40:00,17.2,11.2,29.94,WNW,300,10.0,10.0,77,0.00,,,0.00,Wunderground v.1.15,2013-12-15 21:40:00,
2013-12-15 16:45:00,17.1,11.1,29.95,NW,321,9.0,13.0,77,0.00,,,0.00,Wunderground v.1.15,2013-12-15 21:45:00,
2013-12-15 16:51:00,16.9,10.9,29.95,NNW,340,8.0,8.0,77,0.00,,,0.00,Wunderground v.1.15,2013-12-15 21:51:00,
2013-12-15 16:57:00,16.8,11.1,29.96,NW,304,7.0,10.0,78,0.00,,,0.00,Wunderground v.1.15,2013-12-15 21:57:00,
2013-12-15 17:02:00,16.7,10.7,29.96,NNW,341,5.0,6.0,77,0.00,,,0.00,Wunderground v.1.15,2013-12-15 22:02:00,
2013-12-15 17:07:00,16.7,10.7,29.96,NNW,340,5.0,11.0,77,0.00,,,0.00,Wunderground v.1.15,2013-12-15 22:07:00,
2013-12-15 17:13:00,16.6,10.6,29.96,NNW,330,6.0,9.0,77,0.00,,,0.00,Wunderground v.1.15,2013-12-15 22:13:00,
2013-12-15 17:19:00,16.5,10.5,29.96,NW,307,6.0,11.0,77,0.00,,,0.00,Wunderground v.1.15,2013-12-15 22:19:00,
2013-12-15 17:24:00,16.4,10.4,29.96,WNW,288,7.0,10.0,77,0.00,,,0.00,Wunderground v.1.15,2013-12-15 22:24:00,
2013-12-15 17:30:00,16.2,10.5,29.96,West,279,5.0,10.0,78,0.00,,,0.00,Wunderground v.1.15,2013-12-15 22:30:00,
2013-12-15 17:35:00,16.2,10.3,29.97,NNW,333,7.0,10.0,77,0.00,,,0.00,Wunderground v.1.15,2013-12-15 22:35:00,
2013-12-15 17:41:00,16.1,10.2,29.97,NW,319,7.0,7.0,77,0.00,,,0.00,Wunderground v.1.15,2013-12-15 22:41:00,
2013-12-15 17:46:00,16.0,10.1,29.97,NW,315,5.0,9.0,77,0.00,,,0.00,Wunderground v.1.15,2013-12-15 22:46:00,
2013-12-15 17:52:00,15.9,10.0,29.97,NNW,335,5.0,7.0,77,0.00,,,0.00,Wunderground v.1.15,2013-12-15 22:52:00,
2013-12-15 17:57:00,15.9,10.0,29.97,NNW,329,5.0,9.0,77,0.00,,,0.00,Wunderground v.1.15,2013-12-15 22:57:00,
2013-12-15 18:03:00,15.9,10.3,29.97,NNW,340,5.0,9.0,78,0.00,,,0.00,Wunderground v.1.15,2013-12-15 23:03:00,
2013-12-15 18:08:00,15.8,10.4,29.98,NW,305,6.0,9.0,79,0.00,,,0.00,Wunderground v.1.15,2013-12-15 23:08:00,
2013-12-15 18:13:00,15.7,10.6,29.98,North,360,6.0,7.0,80,0.00,,,0.00,Wunderground v.1.15,2013-12-15 23:13:00,
2013-12-15 18:19:00,15.4,10.3,29.99,WNW,292,7.0,20.0,80,0.00,,,0.00,Wunderground v.1.15,2013-12-15 23:19:00,
2013-12-15 18:24:00,15.3,10.0,30.00,NW,320,7.0,8.0,79,0.00,,,0.00,Wunderground v.1.15,2013-12-15 23:24:00,
2013-12-15 18:30:00,15.2,9.6,30.00,NW,322,5.0,5.0,78,0.00,,,0.00,Wunderground v.1.15,2013-12-15 23:30:00,
2013-12-15 18:35:00,15.1,9.2,30.00,NW,323,5.0,5.0,77,0.00,,,0.00,Wunderground v.1.15,2013-12-15 23:35:00,
2013-12-15 18:41:00,15.1,8.9,30.00,NNW,340,5.0,9.0,76,0.00,,,0.00,Wunderground v.1.15,2013-12-15 23:41:00,
2013-12-15 18:46:00,15.0,8.5,30.00,WNW,294,5.0,9.0,75,0.00,,,0.00,Wunderground v.1.15,2013-12-15 23:46:00,
2013-12-15 18:52:00,15.0,8.2,30.00,WNW,290,5.0,9.0,74,0.00,,,0.00,Wunderground v.1.15,2013-12-15 23:52:00,
2013-12-15 18:57:00,14.9,7.8,30.00,WNW,290,5.0,9.0,73,0.00,,,0.00,Wunderground v.1.15,2013-12-15 23:57:00,
2013-12-15 19:02:00,14.9,7.8,30.01,NW,321,5.0,5.0,73,0.00,,,0.00,Wunderground v.1.15,2013-12-16 00:02:00,
2013-12-15 19:07:00,14.8,7.4,30.01,NNW,338,5.0,9.0,72,0.00,,,0.00,Wunderground v.1.15,2013-12-16 00:07:00,
2013-12-15 19:13:00,14.8,7.4,30.01,NW,312,5.0,12.0,72,0.00,,,0.00,Wunderground v.1.15,2013-12-16 00:13:00,
2013-12-15 19:19:00,14.7,7.6,30.01,West,271,5.0,12.0,73,0.00,,,0.00,Wunderground v.1.15,2013-12-16 00:19:00,
2013-12-15 19:24:00,14.6,7.5,30.01,NW,309,5.0,9.0,73,0.00,,,0.00,Wunderground v.1.15,2013-12-16 00:24:00,
2013-12-15 19:30:00,14.6,7.5,30.01,WNW,299,4.0,4.0,73,0.00,,,0.00,Wunderground v.1.15,2013-12-16 00:30:00,
2013-12-15 19:35:00,14.5,7.7,30.02,WNW,297,3.0,9.0,74,0.00,,,0.00,Wunderground v.1.15,2013-12-16 00:35:00,
2013-12-15 19:41:00,14.4,7.6,30.02,WNW,300,3.0,4.0,74,0.00,,,0.00,Wunderground v.1.15,2013-12-16 00:41:00,
2013-12-15 19:46:00,14.4,7.9,30.02,WNW,298,3.0,4.0,75,0.00,,,0.00,Wunderground v.1.15,2013-12-16 00:46:00,
2013-12-15 19:52:00,14.4,8.2,30.02,West,277,3.0,4.0,76,0.00,,,0.00,Wunderground v.1.15,2013-12-16 00:52:00,
2013-12-15 19:57:00,14.4,8.2,30.02,West,278,3.0,4.0,76,0.00,,,0.00,Wunderground v.1.15,2013-12-16 00:57:00,
2013-12-15 20:03:00,14.3,8.4,30.02,West,277,3.0,5.0,77,0.00,,,0.00,Wunderground v.1.15,2013-12-16 01:03:00,
2013-12-15 20:09:00,14.2,8.3,30.02,WNW,299,3.0,5.0,77,0.00,,,0.00,Wunderground v.1.15,2013-12-16 01:09:00,
2013-12-15 20:14:00,14.1,8.2,30.02,WNW,287,3.0,4.0,77,0.00,,,0.00,Wunderground v.1.15,2013-12-16 01:14:00,
2013-12-15 20:19:00,14.0,8.1,30.03,WNW,302,3.0,4.0,77,0.00,,,0.00,Wunderground v.1.15,2013-12-16 01:19:00,
2013-12-15 20:25:00,13.8,7.9,30.03,WNW,292,3.0,5.0,77,0.00,,,0.00,Wunderground v.1.15,2013-12-16 01:25:00,
2013-12-15 20:30:00,13.6,7.7,30.03,WNW,296,2.0,2.0,77,0.00,,,0.00,Wunderground v.1.15,2013-12-16 01:30:00,
2013-12-15 20:35:00,13.6,8.0,30.04,NW,314,3.0,4.0,78,0.00,,,0.00,Wunderground v.1.15,2013-12-16 01:35:00,
2013-12-15 20:41:00,13.6,8.3,30.04,NW,314,3.0,4.0,79,0.00,,,0.00,Wunderground v.1.15,2013-12-16 01:41:00,
2013-12-15 20:46:00,13.6,8.3,30.03,NW,314,2.0,4.0,79,0.00,,,0.00,Wunderground v.1.15,2013-12-16 01:46:00,
2013-12-15 20:52:00,13.4,8.1,30.04,NW,312,1.0,3.0,79,0.00,,,0.00,Wunderground v.1.15,2013-12-16 01:52:00,
2013-12-15 20:57:00,13.5,8.2,30.04,NW,307,2.0,5.0,79,0.00,,,0.00,Wunderground v.1.15,2013-12-16 01:57:00,
2013-12-15 21:03:00,13.7,8.1,30.05,NW,311,3.0,4.0,78,0.00,,,0.00,Wunderground v.1.15,2013-12-16 02:03:00,
2013-12-15 21:09:00,13.9,8.0,30.04,NW,309,3.0,6.0,77,0.00,,,0.00,Wunderground v.1.15,2013-12-16 02:09:00,
2013-12-15 21:14:00,13.9,8.0,30.05,WNW,302,3.0,5.0,77,0.00,,,0.00,Wunderground v.1.15,2013-12-16 02:14:00,
2013-12-15 21:20:00,14.0,9.8,30.05,NW,309,4.0,4.0,83,0.00,,,0.00,Wunderground v.1.15,2013-12-16 02:20:00,
2013-12-15 21:25:00,13.9,7.1,30.05,NW,317,4.0,6.0,74,0.00,,,0.00,Wunderground v.1.15,2013-12-16 02:25:00,
2013-12-15 21:31:00,13.9,6.8,30.05,NW,318,4.0,4.0,73,0.00,,,0.00,Wunderground v.1.15,2013-12-16 02:31:00,
2013-12-15 21:37:00,13.7,6.3,30.05,WNW,294,3.0,5.0,72,0.00,,,0.00,Wunderground v.1.15,2013-12-16 02:37:00,
2013-12-15 21:43:00,13.6,6.2,30.06,WNW,290,4.0,4.0,72,0.00,,,0.00,Wunderground v.1.15,2013-12-16 02:43:00,
2013-12-15 21:49:00,13.3,6.0,30.06,WNW,292,3.0,4.0,72,0.00,,,0.00,Wunderground v.1.15,2013-12-16 02:49:00,
2013-12-15 21:54:00,13.1,6.1,30.05,NW,306,2.0,5.0,73,0.00,,,0.00,Wunderground v.1.15,2013-12-16 02:54:00,
2013-12-15 22:00:00,12.9,5.9,30.06,NW,321,3.0,3.0,73,0.00,,,0.00,Wunderground v.1.15,2013-12-16 03:00:00,
2013-12-15 22:05:00,12.8,5.8,30.06,NNW,329,3.0,5.0,73,0.00,,,0.00,Wunderground v.1.15,2013-12-16 03:05:00,
2013-12-15 22:10:00,12.7,5.7,30.07,NNW,327,2.0,2.0,73,0.00,,,0.00,Wunderground v.1.15,2013-12-16 03:10:00,
2013-12-15 22:15:00,12.6,5.9,30.07,WNW,290,2.0,2.0,74,0.00,,,0.00,Wunderground v.1.15,2013-12-16 03:15:00,
2013-12-15 22:21:00,12.3,5.6,30.07,WNW,290,2.0,2.0,74,0.00,,,0.00,Wunderground v.1.15,2013-12-16 03:21:00,
2013-12-15 22:26:00,12.2,5.5,30.07,WNW,290,2.0,2.0,74,0.00,,,0.00,Wunderground v.1.15,2013-12-16 03:26:00,
2013-12-15 22:32:00,12.0,5.6,30.07,WNW,290,1.0,2.0,75,0.00,,,0.00,Wunderground v.1.15,2013-12-16 03:32:00,
2013-12-15 22:37:00,11.9,5.5,30.07,WNW,290,0.0,2.0,75,0.00,,,0.00,Wunderground v.1.15,2013-12-16 03:37:00,
2013-12-15 22:43:00,11.8,5.4,30.07,WNW,290,0.0,2.0,75,0.00,,,0.00,Wunderground v.1.15,2013-12-16 03:43:00,
2013-12-15 22:44:00,11.8,5.4,30.07,WNW,290,0.0,3.0,75,0.00,,,0.00,Wunderground v.1.15,2013-12-16 03:44:00,
2013-12-15 22:50:00,11.6,5.2,30.07,WNW,290,1.0,2.0,75,0.00,,,0.00,Wunderground v.1.15,2013-12-16 03:50:00,
2013-12-15 22:55:00,11.5,5.4,30.07,WNW,290,1.0,3.0,76,0.00,,,0.00,Wunderground v.1.15,2013-12-16 03:55:00,
2013-12-15 23:01:00,11.5,5.7,30.08,WNW,290,2.0,2.0,77,0.00,,,0.00,Wunderground v.1.15,2013-12-16 04:01:00,
2013-12-15 23:06:00,11.3,5.5,30.08,WNW,290,1.0,2.0,77,0.00,,,0.00,Wunderground v.1.15,2013-12-16 04:06:00,
2013-12-15 23:12:00,11.0,5.2,30.08,WNW,290,1.0,1.0,77,0.00,,,0.00,Wunderground v.1.15,2013-12-16 04:12:00,
2013-12-15 23:17:00,10.9,5.1,30.08,WNW,290,1.0,3.0,77,0.00,,,0.00,Wunderground v.1.15,2013-12-16 04:17:00,
2013-12-15 23:23:00,10.8,5.3,30.08,WNW,290,1.0,2.0,78,0.00,,,0.00,Wunderground v.1.15,2013-12-16 04:23:00,
2013-12-15 23:29:00,10.6,5.1,30.08,WNW,290,1.0,2.0,78,0.00,,,0.00,Wunderground v.1.15,2013-12-16 04:29:00,
2013-12-15 23:34:00,10.5,5.0,30.08,WNW,290,0.0,2.0,78,0.00,,,0.00,Wunderground v.1.15,2013-12-16 04:34:00,
2013-12-15 23:40:00,10.3,4.8,30.08,WNW,290,0.0,0.0,78,0.00,,,0.00,Wunderground v.1.15,2013-12-16 04:40:00,
2013-12-15 23:45:00,10.0,4.5,30.08,WNW,290,0.0,0.0,78,0.00,,,0.00,Wunderground v.1.15,2013-12-16 04:45:00,
2013-12-15 23:51:00,9.7,4.2,30.09,WNW,290,0.0,0.0,78,0.00,,,0.00,Wunderground v.1.15,2013-12-16 04:51:00,
2013-12-15 23:56:00,9.2,4.0,30.09,WNW,290,0.0,0.0,79,0.00,,,0.00,Wunderground v.1.15,2013-12-16 04:56:00,